Simultaneous Nadir Overpasses (SNOs) Predictions

Prediction of SNOs between GOES-15 and TERRA Satellite Orbit:

Table of predicted SNOs for the next 14.0 days since TLE Epoch: 11/18/2023
Index Date Time (GOES-15) GOES-15 Lat,Lon TERRA Lat,Lon Distance(km) Time Diff (sec)
1 11/19/2023 05:52:58 -0.23, 61.60 -0.26, 61.71 12.79 80
2 11/21/2023 05:36:16 -0.23, 61.55 -1.09, 65.75 476.97 80
3 11/21/2023 17:56:30 0.21, 61.61 0.06, 60.83 88.47 80
4 11/23/2023 17:37:08 0.22, 61.56 0.90, 64.86 375.21 80
5 11/24/2023 05:57:14 -0.21, 61.47 0.09, 59.97 170.64 80
6 11/26/2023 05:43:12 -0.21, 61.42 -0.78, 63.99 293.18 80
7 11/26/2023 18:03:25 0.20, 61.47 -0.30, 59.09 271.10 80
8 11/28/2023 17:44:02 0.20, 61.43 0.52, 63.13 191.67 80
9 11/29/2023 06:04:09 -0.19, 61.36 0.46, 58.23 355.83 80
10 12/01/2023 05:50:06 -0.18, 61.32 -0.38, 62.27 107.25 80
11 12/01/2023 18:10:19 0.17, 61.36 -0.68, 57.36 455.69 80
